FW3788 Weather Reports


Display with metric or nautical units.
time (UTC)temp
F
wind
direction
speed
MPH
gust
MPH
rain 1hr
in
rain 24hr
in
rain mn
in
humidity
%
barometer
mb
20260510093019 52 185 0.0 0.0 0.00 0.00 0.00 74 1011.2
20260510092519 51 185 0.0 0.0 0.00 0.00 0.00 73 1011.2
20260510092019 52 185 0.0 0.0 0.00 0.00 0.00 73 1011.3
20260510091518 52 185 0.0 0.0 0.00 0.00 0.00 72 1011.3
20260510091021 52 185 0.0 0.0 0.00 0.00 0.00 72 1011.2
20260510090519 53 185 0.0 0.0 0.00 0.00 0.00 71 1011.3
20260510090021 53 185 0.0 0.0 0.00 0.00 0.00 71 1011.3
20260510085520 53 185 0.0 0.0 0.00 0.00 0.00 72 1011.3
20260510085018 52 185 0.0 0.0 0.00 0.00 0.00 71 1011.3
20260510084525 53 185 0.0 0.0 0.00 0.00 0.00 71 1011.4
20260510084019 52 185 0.0 0.0 0.00 0.00 0.00 72 1011.4
20260510083520 52 185 0.0 0.0 0.00 0.00 0.00 72 1011.4
20260510083019 52 185 0.0 0.0 0.00 0.00 0.00 71 1011.4
20260510082522 52 185 0.0 0.0 0.00 0.00 0.00 71 1011.4
20260510082019 52 185 0.0 0.0 0.00 0.00 0.00 70 1011.4
20260510081520 53 185 0.0 0.0 0.00 0.00 0.00 70 1011.5
20260510081019 53 185 0.0 0.0 0.00 0.00 0.00 69 1011.5
20260510080520 53 185 0.0 0.0 0.00 0.00 0.00 69 1011.5
20260510080020 53 185 0.0 0.0 0.00 0.00 0.00 69 1011.6
20260510075518 53 185 0.0 0.0 0.00 0.00 0.00 69 1011.5
20260510075019 53 185 0.0 0.0 0.00 0.00 0.00 69 1011.5
20260510074523 53 185 0.0 0.0 0.00 0.00 0.00 69 1011.6
20260510074018 53 185 0.0 0.0 0.00 0.00 0.00 69 1011.6
20260510073518 53 185 0.0 0.0 0.00 0.00 0.00 68 1011.7
20260510073019 53 185 0.0 0.0 0.00 0.00 0.00 67 1011.7
20260510072521 54 185 0.0 0.0 0.00 0.00 0.00 67 1011.7
20260510072021 54 185 0.0 0.0 0.00 0.00 0.00 67 1011.6
20260510071525 54 185 0.0 0.0 0.00 0.00 0.00 67 1011.6
20260510071018 54 185 0.0 0.0 0.00 0.00 0.00 67 1011.6
20260510070619 54 185 0.0 0.0 0.00 0.00 0.00 67 1011.7
20260510070018 54 185 0.0 0.0 0.00 0.00 0.00 67 1011.6
20260510065519 54 185 0.0 0.0 0.00 0.00 0.00 67 1011.6
20260510065018 54 185 0.0 0.0 0.00 0.00 0.00 66 1011.7
20260510064519 54 185 0.0 0.0 0.00 0.00 0.00 66 1011.6
20260510064018 55 185 0.0 0.0 0.00 0.00 0.00 65 1011.6
20260510063518 55 185 0.0 0.0 0.00 0.00 0.00 65 1011.7
20260510063019 55 185 0.0 0.0 0.00 0.00 0.00 64 1011.7
20260510062519 55 185 0.0 0.0 0.00 0.00 0.00 64 1011.7
20260510062019 55 185 0.0 0.0 0.00 0.00 0.00 63 1011.8
20260510061518 56 185 0.0 0.0 0.00 0.00 0.00 63 1011.8
20260510061019 56 185 0.0 0.0 0.00 0.00 0.00 63 1011.7
20260510060519 56 185 0.0 0.0 0.00 0.00 0.00 63 1011.8
20260510060019 56 185 0.0 0.0 0.00 0.00 0.00 63 1011.9
20260510055518 56 185 0.0 0.0 0.00 0.00 0.00 62 1011.8
20260510055019 56 185 0.0 0.0 0.00 0.00 0.00 61 1011.9
20260510054519 56 185 0.0 0.0 0.00 0.00 0.00 61 1011.8
20260510054018 56 185 0.0 0.0 0.00 0.00 0.00 61 1011.8
20260510053518 57 185 0.0 0.0 0.00 0.00 0.00 60 1011.7
20260510053019 57 185 0.0 0.0 0.00 0.00 0.00 61 1011.8
20260510052518 57 185 0.0 0.0 0.00 0.00 0.00 60 1011.8
20260510052018 57 185 0.0 0.0 0.00 0.00 0.00 60 1011.9
20260510051619 57 185 0.0 0.0 0.00 0.00 0.00 60 1011.9
20260510051020 58 185 0.0 0.0 0.00 0.00 0.00 58 1011.9
20260510050518 58 185 0.0 0.0 0.00 0.00 0.00 58 1011.9
20260510050121 58 185 0.0 0.0 0.00 0.00 0.00 58 1011.9
20260510045519 58 185 0.0 0.0 0.00 0.00 0.00 58 1011.8
20260510045020 59 185 0.0 0.0 0.00 0.00 0.00 58 1011.8
20260510044518 59 185 0.0 0.0 0.00 0.00 0.00 57 1011.7
20260510044022 60 185 0.0 0.0 0.00 0.00 0.00 55 1011.6
20260510043519 61 185 0.0 0.0 0.00 0.00 0.00 54 1011.6
20260510043019 61 185 0.0 0.0 0.00 0.00 0.00 55 1011.5
20260510042522 60 185 0.0 0.0 0.00 0.00 0.00 55 1011.5
20260510042019 61 185 0.0 0.0 0.00 0.00 0.00 55 1011.4
20260510041519 61 185 0.0 0.0 0.00 0.00 0.00 54 1011.3
20260510041019 61 185 0.0 0.0 0.00 0.00 0.00 55 1011.3
20260510040519 62 185 0.0 0.0 0.00 0.00 0.00 54 1011.3
20260510040023 62 185 0.0 0.0 0.00 0.00 0.00 53 1011.2
20260510035519 62 185 0.0 0.0 0.00 0.00 0.00 53 1011.1
20260510035018 63 185 0.0 0.0 0.00 0.00 0.00 52 1011.0
20260510034519 63 228 0.0 0.0 0.00 0.00 0.00 51 1011.0
20260510034019 64 287 0.0 0.0 0.00 0.00 0.00 50 1010.9
20260510033519 65 294 0.0 0.0 0.00 0.00 0.00 49 1010.9
20260510033019 66 296 0.0 0.0 0.00 0.00 0.00 46 1010.8
20260510032518 67 310 0.0 0.0 0.00 0.00 0.00 43 1010.8
20260510032019 68 310 0.0 0.0 0.00 0.00 0.00 43 1010.6
20260510031527 69 310 0.0 4.0 0.00 0.00 0.00 42 1010.6
20260510031020 69 310 0.0 4.0 0.00 0.00 0.00 42 1010.5
20260510030519 70 320 0.0 4.0 0.00 0.00 0.00 41 1010.4
20260510030019 70 318 0.0 6.0 0.00 0.00 0.00 40 1010.5
20260510025519 70 328 2.0 8.0 0.00 0.00 0.00 39 1010.4
20260510025019 71 330 3.0 8.0 0.00 0.00 0.00 38 1010.3
20260510024522 71 339 4.0 10.0 0.00 0.00 0.00 38 1010.3
20260510024018 72 327 5.0 10.0 0.00 0.00 0.00 36 1010.2
20260510023519 72 314 5.0 9.0 0.00 0.00 0.00 35 1010.1
20260510023019 73 318 4.0 9.0 0.00 0.00 0.00 33 1010.1
20260510022523 73 332 4.0 9.0 0.00 0.00 0.00 32 1010.1
20260510022019 74 326 0.0 8.0 0.00 0.00 0.00 31 1010.1
20260510021530 74 311 1.0 9.0 0.00 0.00 0.00 31 1010.1
20260510021019 74 349 4.0 9.0 0.00 0.00 0.00 31 1010.0
20260510020519 75 322 2.0 7.0 0.00 0.00 0.00 31 1010.0
20260510020025 75 318 1.0 7.0 0.00 0.00 0.00 32 1010.1
20260510015519 75 296 2.0 7.0 0.00 0.00 0.00 31 1010.0
20260510015019 76 325 1.0 10.0 0.00 0.00 0.00 30 1009.9
20260510014520 76 295 3.0 10.0 0.00 0.00 0.00 30 1009.9
20260510014020 76 336 1.0 9.0 0.00 0.00 0.00 30 1009.9
20260510013520 76 341 3.0 9.0 0.00 0.00 0.00 28 1009.9
20260510013018 77 331 1.0 10.0 0.00 0.00 0.00 28 1009.9
20260510012519 77 327 2.0 10.0 0.00 0.00 0.00 29 1009.9
20260510012019 77 320 3.0 9.0 0.00 0.00 0.00 28 1009.9
20260510011520 78 313 3.0 9.0 0.00 0.00 0.00 29 1009.9
20260510011019 78 347 4.0 9.0 0.00 0.00 0.00 28 1009.9
20260510010519 78 308 2.0 10.0 0.00 0.00 0.00 28 1009.8
20260510010019 79 338 3.0 12.0 0.00 0.00 0.00 28 1009.8
20260510005519 79 350 6.0 12.0 0.00 0.00 0.00 28 1009.8
20260510005020 79 318 5.0 11.0 0.00 0.00 0.00 28 1009.8
20260510004519 79 298 4.0 11.0 0.00 0.00 0.00 28 1009.8
20260510004019 79 340 4.0 11.0 0.00 0.00 0.00 27 1009.9
20260510003522 79 308 5.0 12.0 0.00 0.00 0.00 27 1009.8
20260510003020 80 290 3.0 12.0 0.00 0.00 0.00 28 1009.8
20260510002519 80 324 4.0 11.0 0.00 0.00 0.00 27 1009.7
20260510002019 81 312 1.0 10.0 0.00 0.00 0.00 27 1009.8
20260510001530 81 283 1.0 10.0 0.00 0.00 0.00 27 1009.7
20260510001019 81 270 3.0 10.0 0.00 0.00 0.00 27 1009.8
20260510000519 82 284 1.0 10.0 0.00 0.00 0.00 27 1009.8
20260510000019 81 325 3.0 10.0 0.00 0.00 0.00 27 1009.8
20260509235519 81 301 2.0 10.0 0.00 0.00 0.00 26 1009.8
20260509235025 82 290 3.0 10.0 0.00 0.00 0.00 26 1009.9
20260509234519 82 278 1.0 10.0 0.00 0.00 0.00 27 1009.8
20260509234120 82 333 1.0 10.0 0.00 0.00 0.00 27 1009.9
20260509233519 82 291 4.0 11.0 0.00 0.00 0.00 27 1009.8
20260509233020 82 277 3.0 13.0 0.00 0.00 0.00 27 1009.8
20260509232519 82 290 1.0 13.0 0.00 0.00 0.00 26 1009.8
20260509232019 82 302 1.0 11.0 0.00 0.00 0.00 26 1009.8
20260509231518 83 268 2.0 10.0 0.00 0.00 0.00 26 1009.9
20260509231018 84 308 3.0 10.0 0.00 0.00 0.00 26 1009.9
20260509230518 84 279 1.0 7.0 0.00 0.00 0.00 26 1009.9
20260509230020 83 291 0.0 10.0 0.00 0.00 0.00 26 1009.9
20260509225519 83 305 3.0 10.0 0.00 0.00 0.00 26 1009.9
20260509225021 83 314 0.0 11.0 0.00 0.00 0.00 26 1009.9
20260509224518 83 32 1.0 11.0 0.00 0.00 0.00 26 1010.0
20260509224019 82 316 0.0 10.0 0.00 0.00 0.00 28 1010.1
20260509223519 81 59 0.0 11.0 0.00 0.00 0.00 28 1010.2
20260509223019 81 313 4.0 11.0 0.00 0.00 0.00 27 1010.3
20260509222519 82 334 5.0 12.0 0.00 0.00 0.00 28 1010.4
20260509222022 82 298 5.0 12.0 0.00 0.00 0.00 27 1010.5
20260509221520 83 13 3.0 12.0 0.00 0.00 0.00 27 1010.5
20260509221019 83 332 0.0 7.0 0.00 0.00 0.00 28 1010.5
20260509220518 82 28 2.0 8.0 0.00 0.00 0.00 27 1010.5
20260509220022 82 341 0.0 10.0 0.00 0.00 0.00 27 1010.6
20260509215519 82 316 6.0 10.0 0.00 0.00 0.00 28 1010.6
20260509215021 82 48 1.0 10.0 0.00 0.00 0.00 28 1010.7
20260509214530 82 292 3.0 10.0 0.00 0.00 0.00 28 1010.8
20260509214118 82 319 5.0 10.0 0.00 0.00 0.00 27 1010.8
20260509213522 82 310 2.0 10.0 0.00 0.00 0.00 28 1011.0
20260509213020 82 295 4.0 10.0 0.00 0.00 0.00 28 1011.1
20260509212518 82 290 2.0 9.0 0.00 0.00 0.00 27 1011.0
20260509212019 82 287 1.0 11.0 0.00 0.00 0.00 28 1011.1
20260509211522 82 320 0.0 11.0 0.00 0.00 0.00 27 1011.2
20260509211019 82 338 5.0 10.0 0.00 0.00 0.00 27 1011.1
20260509210520 82 311 4.0 10.0 0.00 0.00 0.00 25 1011.3
20260509210019 82 34 0.0 11.0 0.00 0.00 0.00 26 1011.2
20260509205519 82 47 2.0 11.0 0.00 0.00 0.00 25 1011.3
20260509205019 82 324 1.0 8.0 0.00 0.00 0.00 22 1011.3
20260509204528 82 330 2.0 8.0 0.00 0.00 0.00 25 1011.3
20260509204019 82 18 0.0 6.0 0.00 0.00 0.00 22 1011.3
20260509203519 82 323 2.0 10.0 0.00 0.00 0.00 22 1011.3
20260509203019 81 334 3.0 10.0 0.00 0.00 0.00 22 1011.4
20260509202518 81 293 0.0 10.0 0.00 0.00 0.00 23 1011.5
20260509202019 82 302 1.0 8.0 0.00 0.00 0.00 23 1011.5
20260509201518 83 303 2.0 6.0 0.00 0.00 0.00 21 1011.6
20260509201019 83 138 0.0 3.0 0.00 0.00 0.00 20 1011.6
20260509200518 82 266 0.0 7.0 0.00 0.00 0.00 20 1011.7
20260509200019 81 291 2.0 9.0 0.00 0.00 0.00 21 1011.7
20260509195520 81 52 2.0 9.0 0.00 0.00 0.00 23 1011.8
20260509195021 80 297 2.0 9.0 0.00 0.00 0.00 23 1011.9
20260509194518 80 345 1.0 11.0 0.00 0.00 0.00 22 1011.9
20260509194019 80 8 5.0 11.0 0.00 0.00 0.00 20 1011.9
20260509193519 80 326 1.0 11.0 0.00 0.00 0.00 20 1011.9
20260509193030 80 319 3.0 11.0 0.00 0.00 0.00 21 1012.0
20260509192519 81 323 2.0 9.0 0.00 0.00 0.00 21 1012.0
20260509192022 80 343 1.0 5.0 0.00 0.00 0.00 18 1012.1
20260509191519 80 29 0.0 7.0 0.00 0.00 0.00 14 1012.2
20260509191021 80 343 0.0 8.0 0.00 0.00 0.00 15 1012.2
20260509190523 80 56 0.0 8.0 0.00 0.00 0.00 14 1012.2
20260509190019 80 330 1.0 8.0 0.00 0.00 0.00 14 1012.2
20260509185519 80 23 4.0 8.0 0.00 0.00 0.00 17 1012.3
20260509185023 80 313 3.0 8.0 0.00 0.00 0.00 16 1012.3
20260509184520 80 79 1.0 8.0 0.00 0.00 0.00 14 1012.3
20260509184019 80 317 1.0 5.0 0.00 0.00 0.00 15 1012.4
20260509183519 79 56 0.0 6.0 0.00 0.00 0.00 15 1012.4
20260509183019 79 337 2.0 8.0 0.00 0.00 0.00 16 1012.3
20260509182520 79 30 1.0 8.0 0.00 0.00 0.00 16 1012.4
20260509182018 80 4 2.0 7.0 0.00 0.00 0.00 18 1012.4
20260509181519 79 232 0.0 4.0 0.00 0.00 0.00 21 1012.4
20260509181020 78 285 0.0 4.0 0.00 0.00 0.00 21 1012.5
20260509180520 78 350 1.0 7.0 0.00 0.00 0.00 21 1012.5
20260509180019 78 323 1.0 7.0 0.00 0.00 0.00 21 1012.6
20260509175519 77 322 0.0 6.0 0.00 0.00 0.00 21 1012.5
20260509175021 77 318 0.0 5.0 0.00 0.00 0.00 21 1012.5
20260509174519 77 311 1.0 8.0 0.00 0.00 0.00 20 1012.6
20260509174019 77 349 2.0 8.0 0.00 0.00 0.00 21 1012.7
20260509173518 77 349 0.0 6.0 0.00 0.00 0.00 20 1012.6
20260509173019 77 20 2.0 6.0 0.00 0.00 0.00 21 1012.6
20260509172520 77 335 1.0 7.0 0.00 0.00 0.00 20 1012.7
20260509172120 77 341 0.0 7.0 0.00 0.00 0.00 22 1012.7
20260509171519 77 256 0.0 6.0 0.00 0.00 0.00 22 1012.6
20260509171018 77 347 2.0 6.0 0.00 0.00 0.00 21 1012.6
20260509170519 77 330 0.0 5.0 0.00 0.00 0.00 22 1012.6
20260509170019 77 330 1.0 5.0 0.00 0.00 0.00 19 1012.6
20260509165519 76 308 0.0 4.0 0.00 0.00 0.00 21 1012.7
20260509165023 76 305 1.0 4.0 0.00 0.00 0.00 21 1012.6
20260509164520 76 323 0.0 0.0 0.00 0.00 0.00 22 1012.7
20260509164019 75 322 0.0 5.0 0.00 0.00 0.00 21 1012.8
20260509163519 74 323 2.0 5.0 0.00 0.00 0.00 22 1012.8
20260509163021 74 320 1.0 4.0 0.00 0.00 0.00 22 1012.8
20260509162520 74 110 0.0 0.0 0.00 0.00 0.00 25 1012.8
20260509162020 74 114 0.0 0.0 0.00 0.00 0.00 25 1012.8
20260509161520 73 114 0.0 0.0 0.00 0.00 0.00 27 1012.8
20260509161019 72 114 0.0 0.0 0.00 0.00 0.00 26 1013.0
20260509160519 72 114 0.0 0.0 0.00 0.00 0.00 27 1012.9
20260509160023 71 114 0.0 0.0 0.00 0.00 0.00 28 1013.0
20260509155519 71 114 0.0 0.0 0.00 0.00 0.00 27 1013.0
20260509155019 70 114 0.0 0.0 0.00 0.00 0.00 27 1013.1
20260509154521 70 114 0.0 0.0 0.00 0.00 0.00 34 1013.0
20260509154019 69 114 0.0 0.0 0.00 0.00 0.00 36 1013.2
20260509153521 68 114 0.0 0.0 0.00 0.00 0.00 36 1013.1
20260509153026 67 114 0.0 0.0 0.00 0.00 0.00 34 1013.2
20260509152520 66 114 0.0 0.0 0.00 0.00 0.00 39 1013.1
20260509152020 65 114 0.0 0.0 0.00 0.00 0.00 39 1013.2
20260509151518 64 114 0.0 0.0 0.00 0.00 0.00 41 1013.2
20260509151018 63 114 0.0 0.0 0.00 0.00 0.00 37 1013.2
20260509150518 62 114 0.0 0.0 0.00 0.00 0.00 45 1013.2
20260509150020 61 114 0.0 0.0 0.00 0.00 0.00 47 1013.2
20260509145519 60 114 0.0 0.0 0.00 0.00 0.00 47 1013.2
20260509145019 59 114 0.0 0.0 0.00 0.00 0.00 45 1013.2
20260509144518 58 114 0.0 0.0 0.00 0.00 0.00 48 1013.2
20260509144018 56 114 0.0 0.0 0.00 0.00 0.00 50 1013.2
20260509143519 54 114 0.0 0.0 0.00 0.00 0.00 52 1013.3
20260509142518 51 187 0.0 0.0 0.00 0.00 0.00 54 1013.3
20260509142120 51 187 0.0 0.0 0.00 0.00 0.00 54 1013.2
20260509141518 52 187 0.0 0.0 0.00 0.00 0.00 52 1013.3
20260509141019 51 187 0.0 0.0 0.00 0.00 0.00 52 1013.2
20260509140518 51 187 0.0 0.0 0.00 0.00 0.00 53 1013.2
20260509140019 50 187 0.0 0.0 0.00 0.00 0.00 54 1013.2
20260509135521 48 187 0.0 0.0 0.00 0.00 0.00 56 1013.2
20260509135019 47 187 0.0 0.0 0.00 0.00 0.00 57 1013.2
20260509134518 48 187 0.0 0.0 0.00 0.00 0.00 55 1013.1
20260509134018 48 187 0.0 0.0 0.00 0.00 0.00 56 1013.0
20260509133518 48 187 0.0 0.0 0.00 0.00 0.00 56 1013.0
20260509133018 47 187 0.0 0.0 0.00 0.00 0.00 55 1012.9
20260509132519 47 187 0.0 0.0 0.00 0.00 0.00 55 1012.9
20260509132019 47 187 0.0 0.0 0.00 0.00 0.00 55 1012.8
20260509131530 47 187 0.0 0.0 0.00 0.00 0.00 55 1012.8
20260509131018 47 187 0.0 0.0 0.00 0.00 0.00 54 1012.8
20260509130518 48 187 0.0 0.0 0.00 0.00 0.00 52 1012.7
20260509130026 48 187 0.0 0.0 0.00 0.00 0.00 52 1012.7
20260509125518 49 187 0.0 0.0 0.00 0.00 0.00 54 1012.7
20260509125018 47 197 0.0 0.0 0.00 0.00 0.00 56 1012.7
20260509124522 47 223 0.0 0.0 0.00 0.00 0.00 53 1012.8
20260509124018 47 223 0.0 0.0 0.00 0.00 0.00 55 1012.8
20260509123519 48 223 0.0 0.0 0.00 0.00 0.00 55 1012.7
20260509123119 48 223 0.0 0.0 0.00 0.00 0.00 54 1012.7
20260509122518 48 223 0.0 0.0 0.00 0.00 0.00 54 1012.8
20260509122018 48 223 0.0 0.0 0.00 0.00 0.00 55 1012.8
20260509121519 47 226 0.0 0.0 0.00 0.00 0.00 55 1012.7
20260509121024 47 226 0.0 0.0 0.00 0.00 0.00 53 1012.7
20260509120518 46 226 0.0 0.0 0.00 0.00 0.00 52 1012.9
20260509120018 46 227 0.0 0.0 0.00 0.00 0.00 54 1012.9
20260509115518 47 227 0.0 0.0 0.00 0.00 0.00 54 1012.9
20260509115018 47 227 0.0 0.0 0.00 0.00 0.00 53 1012.9
20260509114518 47 227 0.0 0.0 0.00 0.00 0.00 50 1012.9
20260509114018 47 227 0.0 0.0 0.00 0.00 0.00 50 1013.0
20260509113520 46 227 0.0 0.0 0.00 0.00 0.00 51 1012.9
20260509113018 46 227 0.0 0.0 0.00 0.00 0.00 48 1013.0
20260509112518 46 227 0.0 0.0 0.00 0.00 0.00 48 1012.9
20260509112018 46 228 0.0 0.0 0.00 0.00 0.00 51 1012.9
20260509111519 47 228 0.0 0.0 0.00 0.00 0.00 51 1012.9
20260509111019 47 228 0.0 0.0 0.00 0.00 0.00 51 1012.9
20260509110519 47 228 0.0 0.0 0.00 0.00 0.00 50 1012.9
20260509110019 47 237 0.0 0.0 0.00 0.00 0.00 47 1013.0
20260509105519 47 237 0.0 0.0 0.00 0.00 0.00 47 1012.9
20260509105019 47 237 0.0 0.0 0.00 0.00 0.00 45 1012.9
20260509104519 46 237 0.0 0.0 0.00 0.00 0.00 48 1013.0
20260509104019 46 237 0.0 0.0 0.00 0.00 0.00 45 1013.0
20260509103519 46 237 0.0 0.0 0.00 0.00 0.00 44 1013.1
20260509103019 46 237 0.0 0.0 0.00 0.00 0.00 44 1013.1
20260509102518 46 237 0.0 0.0 0.00 0.00 0.00 46 1013.2
20260509102019 46 237 0.0 0.0 0.00 0.00 0.00 48 1013.2
20260509101618 46 237 0.0 0.0 0.00 0.00 0.00 48 1013.3
20260509101018 46 237 0.0 0.0 0.00 0.00 0.00 46 1013.3
20260509100518 46 237 0.0 0.0 0.00 0.00 0.00 45 1013.3
20260509100023 45 237 0.0 0.0 0.00 0.00 0.00 46 1013.4
20260509095519 45 237 0.0 0.0 0.00 0.00 0.00 47 1013.4
20260509095019 45 237 0.0 0.0 0.00 0.00 0.00 47 1013.4
20260509094519 46 237 0.0 0.0 0.00 0.00 0.00 46 1013.3
20260509094020 46 237 0.0 0.0 0.00 0.00 0.00 45 1013.3
20260509093518 46 237 0.0 0.0 0.00 0.00 0.00 45 1013.3